Regional Weather Roundup
Issued by NWS

Home | Current Version | Previous Version | Graphics & Text | Print | Product List | Glossary On
Versions: 1 2 3 4 5 6 7 8 9 10 11 12 13 14 15 16 17 18 19 20 21 22 23 24 25 26 27 28 29 30 31 32 33 34 35 36 37 38 39 40 41 42 43 44 45 46 47 48 49 50
000
ASUS43 KTOP 211508
RWRKS

WEATHER ROUNDUP FOR KANSAS
NATIONAL WEATHER SERVICE GOODLAND KS
900 AM CST TUE NOV 21 2017

NOTE:  "FAIR" INDICATES FEW OR NO CLOUDS BELOW 12,000 FEET WITH NO
SIGNIFICANT WEATHER AND/OR OBSTRUCTIONS TO VISIBILITY.

KSZ001>006-013>018-027>032-041>047-211600-
NORTHWEST KANSAS

CITY           SKY/WX    TMP DP  RH WIND       PRES   REMARKS
GOODLAND       SUNNY     38  25  59 N20G37    30.19R WCI  28
HAYS           SUNNY     45  25  45 NE29      30.12R
HILL CITY      SUNNY     42  24  49 N18G35    30.17R
RUSSELL        CLOUDY    44  24  45 N25G33    30.11R
$$

KSZ061>065-074>080-084>089-211600-
SOUTHWEST KANSAS

CITY           SKY/WX    TMP DP  RH WIND       PRES   REMARKS
DODGE CITY     CLOUDY    48  24  39 N15G22    30.06R
ELKHART        SUNNY     52  26  36 N16G22    30.09R
GARDEN CITY    MOSUNNY   49  26  41 N12       30.07R
GREAT BEND     MOSUNNY   46  26  45 N28G37    30.06R
LIBERAL        PTSUNNY   44  23  43 N10       30.07R
PRATT          CLOUDY    49  22  34 N20G29    30.01R
$$

KSZ066>073-081>083-090>101-211600-
SOUTHEAST KANSAS

CITY           SKY/WX    TMP DP  RH WIND       PRES   REMARKS
CHANUTE        CLOUDY    46  35  65 NW5       29.94R
COFFEYVILLE    CLOUDY    47  36  65 S5        29.91R
HUTCHINSON     CLOUDY    51  26  37 N22G35    30.00R
MEDICINE LODGE   N/A     52  26  36 N14       29.96R
NEWTON         CLOUDY    49  28  44 N24       29.99R
PARSONS        MOSUNNY   47  36  65 VRB3      29.91R
WICHITA INTL   CLOUDY    48  30  49 N17       29.93R
WICHITA JABRA  CLOUDY    50  30  46 N18G26    29.95R
WICHITA MCCONL CLOUDY    49  28  45 N14       29.95R
WINFIELD       MOSUNNY   45  35  68 N3        29.94R
$$

KSZ007>012-019>026-033>040-048>060-102>105-211600-
NORTHEAST KANSAS

CITY           SKY/WX    TMP DP  RH WIND       PRES   REMARKS
CONCORDIA      CLOUDY    42  28  57 N20G26    30.10R
EMPORIA        CLOUDY    50  28  42 NE17      29.95R
LAWRENCE       CLOUDY    49  28  44 N13       30.00R
MANHATTAN      CLOUDY    47  25  42 NE14G21   30.07R
MARYSVILLE     CLOUDY    43  28  56 N22       30.08R
OLATHE IND     CLOUDY    48  29  47 N16       30.00R
OLATHE EXE     CLOUDY    48  27  44 N17G30    29.97R
SALINA         PTSUNNY   49  26  41 N21G29    30.07R
TOPEKA BILLARD CLOUDY    48  27  44 N13G22    30.01R
TOPEKA FORBES  CLOUDY    49  26  41 N22G31    29.98R
$$



USA.gov is the U.S. government's official web portal to all federal, state and local government web resources and services.